Location: Bois Neuf
(42.7667°N, 0.6333°E)
Time: 19:19:35
(UTC+00:00)

STARLINK-60 - Pass Details

Date: 07 June 2020
Orbit: 382 x 390 km, 53.0° (Epoch: 09 July)

Event Time Altitude Azimuth Distance (km) Brightness Sun altitude
Rises 02:07:02 0° 305° (NW) 2,278 6.8 -17.9°
Reaches altitude 10° 02:09:05 10° 305° (NW) 1,423 5.8 -17.7°
Maximum altitude 02:12:16 84° 216° (SW) 398 2.7 -17.4°
Drops below altitude 10° 02:15:27 10° 130° (SE) 1,426 5.7 -17.0°
Sets 02:17:31 0° 129° (SE) 2,282 6.7 -16.8°
